Location: Bottom School (historical)
(37.9078°N, 89.3593°W)
Time: 04:07:26
(UTC+00:00)

X-37B - Pass Details

Date: 18 December 2022
Orbit: 277 x 277 km, 45.0° (Epoch: 01 November)

Event Time Altitude Azimuth Distance (km) Brightness Sun altitude
Rises 23:35:46 0° 299° (WNW) 1,915 4.7 -10.7°
Reaches altitude 10° 23:37:42 10° 302° (WNW) 1,100 3.4 -11.1°
Maximum altitude 23:40:08 65° 26° (NNE) 307 -0.2 -11.5°
Enters shadow 23:41:38 20° 105° (ESE) 723 1.5 -11.8°
